Location: Bremen
(53.0793°N, 8.8017°E)
Time: 18:41:16
(UTC+02:00)

Vanguard 1 Rocket - All Passes

Search period start: 23 April 2024 00:00
Search period end: 03 May 2024 00:00
Orbit: 652 x 4219 km, 34.3° (Epoch: 22 April)

Date Brightness Start Highest point End Pass type
(mag) Time Alt. Az. Time Alt. Az. Time Alt. Az.
23 Apr - 19:52:20 10° S 19:53:47 11° SSE 19:55:24 10° SE daylight
23 Apr - 22:13:26 10° SW 22:17:31 16° S 22:22:59 10° SE visible
24 Apr - 00:39:41 10° SW 00:42:20 11° SSW 00:45:22 10° S visible
24 Apr - 21:03:05 10° SSW 21:06:07 14° S 21:09:56 10° SE daylight
24 Apr - 23:27:01 10° SW 23:30:25 13° SSW 23:34:36 10° S visible
25 Apr - 19:53:38 10° S 19:54:58 11° SSE 19:56:24 10° SSE daylight
25 Apr - 22:15:41 10° SSW 22:18:46 13° S 22:22:34 10° SSE visible
26 Apr - 21:05:03 10° SSW 21:07:22 12° S 21:10:05 10° SSE daylight
27 Apr - 19:55:30 10° S 19:56:09 10° S 19:56:50 10° SSE daylight
